Location: Gerlach
(40.6516°N, 119.3568°W)
Time: 14:34:26
(UTC-07:00)

A-11 Canister half - Pass Details

Date: 23 February 2024
Orbit: 1525 x 1683 km, 47.3° (Epoch: 21 April)

Event Time Altitude Azimuth Distance (km) Brightness Sun altitude
Rises 20:51:25 0° 231° (SW) 4,774 11.9 -36.3°
Reaches altitude 10° 20:54:32 10° 230° (SW) 3,770 11.3 -36.8°
Enters shadow 21:01:43 56° 214° (SW) 1,799 9.2 -38.1°
